Regional Weather Roundup
Issued by NWS State College, PA

Home | Current Version | Previous Version | Graphics & Text | Print | Product List | Glossary Off
Versions: 1 2 3 4 5 6 7 8 9 10 11 12 13 14 15 16 17 18 19 20 21 22 23 24 25 26 27 28 29 30 31 32 33 34 35 36 37 38 39 40 41 42 43 44 45 46 47 48 49 50

000
ASUS41 KCTP 300403
RWRCTP

REGIONAL WEATHER ROUNDUP
NATIONAL WEATHER SERVICE STATE COLLEGE PA
1200 AM EDT MON MAR 30 2015

Note: "fair" indicates few or no clouds below 12,000 feet with no
significant weather and/or obstructions to visibility.

* = STATION THAT DOES NOT REPORT PRECIPITATION /E.G. RAIN...SNOW...ETC/
    THUNDER OR FOG.

PAZ002>004-007>009-013>016-020>023-029>032-300500-
WESTERN PENNSYLVANIA

CITY           SKY/WX    TMP DP  RH WIND       PRES   REMARKS
ERIE           CLOUDY    42  18  37 SW21G29   29.83F
MEADVILLE      CLOUDY    39  22  50 SW23G32   29.86F
FRANKLIN*      CLOUDY    37  18  44 SW15G30   29.91F
NEW CASTLE     FLURRIES  35  32  89 S6        29.95F
BEAVER COUNTY  NOT AVBL
BUTLER*        CLOUDY    36  28  75 SW9       29.98S
PITTSBURGH INT FLURRIES  36  33  89 SW5       29.97S
PITTSBURGH     CLOUDY    38  25  59 SW10      29.97R
INDIANA*       MOCLDY    39  28  65 W23G40    30.01R
LATROBE        LGT RAIN  37  32  81 S12       30.00S
WASHINGTON CO* CLOUDY    37  28  70 CALM      29.97F
$$

PAZ004>006-010>012-017>019-024>028-033>037-041-042-045-046-049>053-300500-
CENTRAL PENNSYLVANIA

CITY           SKY/WX    TMP DP  RH WIND       PRES   REMARKS
BRADFORD       CLOUDY    32  23  69 S8        29.85F
DUBOIS         CLOUDY    41  16  36 SW22G38   29.90F
CLEARFIELD     CLOUDY    37  10  32 SW3       29.93F
JOHNSTOWN      CLOUDY    38   9  30 SW15G22   29.93F
ALTOONA        CLOUDY    39   9  29 S9        29.96F
STATE COLLEGE  CLOUDY    39   6  26 S9        29.95F
WILLIAMSPORT   CLOUDY    40   8  26 S16G24    30.00F
SELINSGROVE    CLOUDY    40  11  30 S9        30.05F
FT INDIANTOWN  CLOUDY    31  17  57 NE3       30.08F
CAPITAL CITY   CLOUDY    39   6  25 S8        30.07F
HARRISBURG     CLOUDY    39  10  30 S8G17     30.08F
YORK           CLOUDY    39   8  27 VRB6      30.08F
$$

PAZ038>040-043-044-047-048-054-055-060>062-067>071-300500-
EASTERN PENNSYLVANIA

CITY           SKY/WX    TMP DP  RH WIND       PRES   REMARKS
SCRANTON       CLOUDY    37   8  30 S7        30.02F
MOUNT POCONO   CLOUDY    31   8  38 SW9       30.01F
ALLENTOWN      CLOUDY    37  12  35 SW9       30.10F
QUAKERTOWN*    CLOUDY    34  14  44 SW6       30.11S
READING        CLOUDY    36  14  40 S7        30.10S
LANCASTER      CLOUDY    34  18  52 S5        30.10S
COATESVILLE    CLOUDY    34  18  51 S6        30.11S
POTTSTOWN      CLOUDY    35  12  38 SW5       30.14S
BLUE BELL      MOCLDY    37  16  41 S3        30.11F
DOYLESTOWN     MOCLDY    34  12  40 S5        30.10F
WILLOW GROVE   NOT AVBL
NORTH PHILA    PTCLDY    38  11  32 VRB5      30.15F
PHILADELPHIA   CLOUDY    38  14  37 S9        30.15F
$$


USA.gov is the U.S. government's official web portal to all federal, state and local government web resources and services.